McCook, NE

6:44 PM CDT on March 25, 2017 (GMT -0500)
McCook Municipal

Weather History for KMCK - December, 2011

Change the Weather History Date:

Friday, December 16, 2011

  Actual Average Record
Temperature  
Mean Temperature 29 °F 28 °F  
Max Temperature 44 °F 40 °F 69 °F (1962)
Min Temperature 14 °F 15 °F -15 °F (1989)
Degree Days  
Heating Degree Days 36    
Moisture  
Dew Point 20 °F    
Average Humidity 76    
Maximum Humidity 92    
Minimum Humidity 53    
Precipitation  
Precipitation 0.00 in 0.02 in 0.30 in (1961)
Month to date precipitation 0.45 0.34  
Year to date precipitation 19.65 22.23  
Sea Level Pressure  
Sea Level Pressure 30.39 in    
Wind  
Wind Speed 5 mph (WSW)    
Max Wind Speed 10 mph    
Max Gust Speed -    
Visibility 10 miles    
Events      
T = Trace of Precipitation, MM = Missing Value Source: NWS Daily Summary

Daily Weather History Graph

Daily Weather History Graph

Search for Another Location

Airport or City:

Trip Planner

Search our weather history database for the weather conditions in past years. The results will help you decide how hot, cold, wet, or windy it might be!

Date:

Astronomy

Dec. 16, 2011 Rise Set
Actual Time 7:58 AM CST 5:17 PM CST
Civil Twilight 7:27 AM CST 5:48 PM CST
Nautical Twilight 6:53 AM CST 6:22 PM CST
Astronomical Twilight 6:20 AM CST 6:55 PM CST
Moon 11:53 PM CST (12/16) 11:44 AM CST (12/16)
Length of Visible Light 10h 20m
Length of Day
9h 19m
Waning Gibbous, 64% of the Moon is Illuminated
Dec 16
Waning Gibbous
Dec 17
Last Quarter
Dec 24
New
Jan 1
First Quarter
Jan 9
Full

Hourly Weather History & Observations

Time (CST) Temp. Windchill Dew Point Humidity Pressure Visibility Wind Dir Wind Speed Gust Speed Precip Events Conditions
12:53 AM 25.0 °F 19.3 °F 17.1 °F 72% 30.31 in 10.0 mi South 4.6 mph - N/A   Clear
1:53 AM 21.0 °F - 15.1 °F 78% 30.39 in 10.0 mi Calm Calm - N/A   Clear
2:53 AM 19.9 °F 14.9 °F 16.0 °F 85% 30.40 in 10.0 mi SW 3.5 mph - N/A   Clear
3:53 AM 21.2 °F 13.6 °F 15.8 °F 80% 30.29 in 10.0 mi SSW 5.8 mph - N/A   Clear
4:53 AM 19.0 °F 13.9 °F 14.0 °F 81% 30.37 in 10.0 mi SE 3.5 mph - N/A   Clear
5:53 AM 19.4 °F 14.3 °F 15.8 °F 86% 30.29 in 10.0 mi South 3.5 mph - N/A   Clear
6:53 AM 17.1 °F 11.7 °F 14.0 °F 88% 30.41 in 10.0 mi WSW 3.5 mph - N/A   Clear
7:53 AM 14.0 °F 3.9 °F 12.0 °F 92% 30.42 in 10.0 mi SSW 6.9 mph - N/A   Clear
8:53 AM 18.0 °F 11.1 °F 15.1 °F 88% 30.40 in 10.0 mi SW 4.6 mph - N/A   Clear
9:53 AM 25.0 °F 18.1 °F 19.9 °F 81% 30.41 in 10.0 mi SW 5.8 mph - N/A   Clear
10:53 AM 28.0 °F 20.0 °F 21.9 °F 78% 30.41 in 10.0 mi West 8.1 mph - N/A   Clear
11:53 AM 32.0 °F 25.6 °F 24.1 °F 73% 30.40 in 10.0 mi WSW 6.9 mph - N/A   Clear
12:53 PM 36.0 °F 30.3 °F 26.1 °F 67% 30.38 in 10.0 mi SW 6.9 mph - N/A   Clear
1:53 PM 42.1 °F 37.1 °F 26.1 °F 53% 30.36 in 10.0 mi NW 8.1 mph - N/A   Clear
2:53 PM 43.0 °F 39.5 °F 27.0 °F 53% 30.35 in 10.0 mi NNW 5.8 mph - N/A   Clear
3:53 PM 42.1 °F 40.2 °F 28.0 °F 58% 30.35 in 10.0 mi NW 3.5 mph - N/A   Clear
4:53 PM 41.0 °F 38.0 °F 27.0 °F 57% 30.37 in 10.0 mi West 4.6 mph - N/A   Clear
6:53 PM 32.0 °F 26.4 °F 24.1 °F 73% 30.42 in 10.0 mi West 5.8 mph - N/A   Clear
7:53 PM 28.9 °F 21.9 °F 23.0 °F 78% 30.45 in 10.0 mi WSW 6.9 mph - N/A   Clear
8:53 PM 27.0 °F 18.7 °F 21.9 °F 81% 30.45 in 10.0 mi West 8.1 mph - N/A   Clear
9:53 PM 26.1 °F 16.2 °F 21.0 °F 81% 30.45 in 10.0 mi West 10.4 mph - N/A   Clear
10:53 PM 26.1 °F 16.2 °F 21.0 °F 81% 30.45 in 10.0 mi West 10.4 mph - N/A   Clear
11:53 PM 25.0 °F 16.3 °F 21.0 °F 85% 30.45 in 10.0 mi West 8.1 mph - N/A   Clear